THORAD AGENA D DEB, 5349

Orbit data source: Space-Track

THORAD AGENA D DEB, 5349 is space debris in SSO originally from a launch on Wed, 08 Apr 1970 UTC launched from the Air Force Western Test Range (AFWTR). Debris objects in space refer to the collection of defunct objects orbiting the Earth. Examples of debris include non-operational satellites, rocket bodies, and fragments generated from explosions, collisions, or faulty payload assembly.

Loading next visibility...
Identifier
5349, 1970-025KN
Orbit
SSO
Country
Flag of USUS
Related business
Manufacturer
Unknown
Mission
Spacecraft
Bus & Motor
Unknown
Mass
Unknown
Launch date (UTC)
1970-04-08 (56 years ago)
Launch vehicle
Unknown
Launch site
Air Force Western Test Range (AFWTR)
Object type
Payload
Rocket body
Debris
Shape & HBR
Unknown shape, 0.1 m
Radar Cross Section
Small (<0.1 m²)

Expand to show TLE details & history
Last TLE update: 21 hours ago

TLE from 21 hours ago
0 THORAD AGENA D DEB
1 05349U 70025KN  25292.25065595  .00011204  00000-0  50239-2 0  9991
2 05349  99.8129 141.8259 0054138 115.5904 245.0879 14.21866134715630
Epoch: 2025-10-19T06:00Z
TLE epoch observation values (Epoch: 2025-10-19T06:00:56.674Z)
Latitude
0.00003°
Longitude
23.61974°
Altitude
838.517 km
Speed
7.425 km/s
True Right ascension
09h 27m 18s
True Declination
0° 00' 00"
Sunlit
Object was in daylight at epoch
Visualization orbit readout
Latitude
Unknown
Longitude
Unknown
Altitude
Unknown
Speed
Unknown
Apparent Right ascension
Unknown
Apparent Declination
Unknown
Sunlit
N/A
Visualization observer readout
Local Sidereal Time
21:39:33
Azimuth
Unknown
Elevation
Unknown
Doppler factor
Unknown
Orbital elements
Apogee altitude
855.21 km
Perigee altitude
777.312 km
Semi-major axis
7,194.398 km
Eccentricity
0.00541
Inclination
99.8129°
RAAN
141.8259°
Arg. of periapsis
115.5904°
True anomaly
244.52686°
Mean anomaly
245.0879°
Eccentric anomaly
244.80722°
Mean motion
3.55674 °/min
Orbital period
101.22 mins
BSTAR
0.0050239
Loading maneuver chart data...
Computing Atmospheric mass density...

Documentation

Showing up to 5 results
|